Cairo, Egypt

6:48 PM EET on May 23, 2017 (GMT +0200)
Cairo International Airport

Weather History for HECA - November, 2011

Change the Weather History Date:

Monday, November 21, 2011

  Actual Average Record
Temperature  
Mean Temperature 62 °F -  
Max Temperature 68 °F 68 °F 93 °F (1999)
Min Temperature 56 °F 52 °F 53 °F (2002)
Degree Days  
Heating Degree Days 3    
Growing Degree Days 12 (Base 50)    
Moisture  
Dew Point 47 °F    
Average Humidity 58    
Maximum Humidity 77    
Minimum Humidity 28    
Precipitation  
Precipitation 0.00 in 0.01 in - ()
Sea Level Pressure  
Sea Level Pressure 30.12 in    
Wind  
Wind Speed 6 mph ()    
Max Wind Speed 14 mph    
Max Gust Speed -    
Visibility 6.2 miles    
Events      
Averages and records for this station are not official NWS values.
T = Trace of Precipitation, MM = Missing Value Source: Averaged Metar Reports

Daily Weather History Graph

Daily Weather History Graph

Search for Another Location

Airport or City:

Trip Planner

Search our weather history database for the weather conditions in past years. The results will help you decide how hot, cold, wet, or windy it might be!

Date:

Astronomy

Nov. 21, 2011 Rise Set
Actual Time 6:24 AM EET 4:55 PM EET
Civil Twilight 5:58 AM EET 5:21 PM EET
Nautical Twilight 5:29 AM EET 5:50 PM EET
Astronomical Twilight 5:00 AM EET 6:19 PM EET
Moon 1:55 AM EET (11/21) 1:52 PM EET (11/21)
Length of Visible Light 11h 22m
Length of Day
10h 31m
Waning Crescent, 20% of the Moon is Illuminated
Nov 21
Waning Crescent
Nov 25
New
Dec 2
First Quarter
Dec 10
Full
Dec 18
Last Quarter

Hourly Weather History & Observations

Time (EET) Temp. Dew Point Humidity Pressure Visibility Wind Dir Wind Speed Gust Speed Precip Events Conditions
12:00 AM 60.8 °F 50.0 °F 68% 30.09 in - West 5.8 mph - N/A   Clear
12:30 AM 60.8 °F 50.0 °F 68% 30.09 in - West 5.8 mph - N/A   Clear
1:00 AM 60.8 °F 50.0 °F 68% 30.09 in - West 4.6 mph - N/A   Clear
1:30 AM 60.8 °F 50.0 °F 68% 30.09 in - West 4.6 mph - N/A   Clear
2:00 AM 60 °F 50 °F 60% 30.10 in 6 mi West 4.6 mph - -  
2:00 AM 60.8 °F 50.0 °F 68% 30.09 in - West 4.6 mph - N/A   Clear
2:30 AM 60.8 °F 50.0 °F 68% 30.09 in - West 5.8 mph - N/A   Clear
3:00 AM 59.0 °F 50.0 °F 72% 30.09 in - WSW 5.8 mph - N/A   Clear
3:30 AM 59.0 °F 50.0 °F 72% 30.09 in - WSW 5.8 mph - N/A   Clear
4:00 AM 57.2 °F 48.2 °F 72% 30.09 in - SW 5.8 mph - N/A   Clear
4:30 AM 57.2 °F 48.2 °F 72% 30.09 in - SW 5.8 mph - N/A   Clear
5:00 AM 57.2 °F 48.2 °F 72% 30.09 in - WSW 4.6 mph - N/A   Clear
5:30 AM 55.4 °F 48.2 °F 77% 30.09 in - WSW 4.6 mph - N/A   Clear
6:00 AM 55.4 °F 46.4 °F 72% 30.09 in - SW 5.8 mph - N/A   Clear
6:30 AM 57.2 °F 46.4 °F 67% 30.12 in - WSW 4.6 mph - N/A   Clear
7:00 AM 57.2 °F 48.2 °F 72% 30.12 in - WSW 5.8 mph - N/A   Clear
7:30 AM 59.0 °F 48.2 °F 67% 30.12 in 6.2 mi SW 3.5 mph - N/A   Partly Cloudy
8:00 AM 60 °F 48 °F 54% 30.15 in 6 mi WSW 5.8 mph - -   Partly Cloudy
8:00 AM 60.8 °F 48.2 °F 63% 30.12 in 6.2 mi WSW 5.8 mph - N/A   Scattered Clouds
8:30 AM 60.8 °F 48.2 °F 63% 30.12 in 6.2 mi WSW 4.6 mph - N/A   Partly Cloudy
9:00 AM 62.6 °F 48.2 °F 59% 30.15 in - Calm Calm - N/A   Clear
9:30 AM 64.4 °F 48.2 °F 56% 30.15 in - West 4.6 mph - N/A   Clear
10:00 AM 64.4 °F 46.4 °F 52% 30.15 in - NW 4.6 mph - N/A   Clear
10:30 AM 64.4 °F 44.6 °F 49% 30.12 in - West 8.1 mph - N/A   Clear
11:00 AM 64.4 °F 48.2 °F 56% 30.12 in 6.2 mi WNW 9.2 mph - N/A   Scattered Clouds
11:30 AM 64.4 °F 48.2 °F 56% 30.12 in 6.2 mi NNW 9.2 mph - N/A   Scattered Clouds
12:00 PM 66.2 °F 46.4 °F 49% 30.12 in 6.2 mi NW 6.9 mph - N/A   Scattered Clouds
12:30 PM 66.2 °F 46.4 °F 49% 30.09 in 6.2 mi NNW 9.2 mph - N/A   Mostly Cloudy
1:00 PM 66.2 °F 46.4 °F 49% 30.09 in 6.2 mi WNW 8.1 mph - N/A   Mostly Cloudy
1:30 PM 68.0 °F 42.8 °F 40% 30.09 in 6.2 mi NW 11.5 mph - N/A   Mostly Cloudy
2:00 PM 68 °F 42 °F 28% 30.10 in 6 mi NNW 10.4 mph - -   Mostly Cloudy
2:00 PM 68.0 °F 42.8 °F 40% 30.09 in 6.2 mi NNW 10.4 mph - N/A   Mostly Cloudy
2:30 PM 68.0 °F 44.6 °F 43% 30.09 in 6.2 mi North 9.2 mph - N/A   Mostly Cloudy
3:00 PM 68.0 °F 44.6 °F 43% 30.09 in 6.2 mi North 9.2 mph - N/A   Scattered Clouds
3:30 PM 68.0 °F 44.6 °F 43% 30.09 in 6.2 mi NNW 9.2 mph - N/A   Scattered Clouds
4:00 PM 68.0 °F 44.6 °F 43% 30.09 in 6.2 mi NNW 8.1 mph - N/A   Scattered Clouds
4:30 PM 66.2 °F 46.4 °F 49% 30.12 in 6.2 mi NNW 9.2 mph - N/A   Scattered Clouds
5:00 PM 66.2 °F 46.4 °F 49% 30.12 in 6.2 mi NNW 9.2 mph - N/A   Scattered Clouds
5:30 PM 66.2 °F 46.4 °F 49% 30.12 in 6.2 mi North 11.5 mph - N/A   Scattered Clouds
6:00 PM 66.2 °F 48.2 °F 52% 30.12 in - North 13.8 mph - N/A   Clear
6:30 PM 66.2 °F 48.2 °F 52% 30.12 in - North 13.8 mph - N/A   Clear
7:00 PM 64.4 °F 48.2 °F 56% 30.15 in - North 11.5 mph - N/A   Clear
7:30 PM 64.4 °F 48.2 °F 56% 30.15 in - North 11.5 mph - N/A   Clear
8:00 PM 63 °F 48 °F 48% 30.18 in 6 mi North 8.1 mph - -   Partly Cloudy
8:00 PM 62.6 °F 48.2 °F 59% 30.18 in - North 8.1 mph - N/A   Clear
8:30 PM 62.6 °F 48.2 °F 59% 30.18 in - North 8.1 mph - N/A   Clear
9:00 PM 60.8 °F 48.2 °F 63% 30.18 in - North 5.8 mph - N/A   Clear
9:30 PM 60.8 °F 48.2 °F 63% 30.18 in - North 5.8 mph - N/A   Clear
10:00 PM 60.8 °F 48.2 °F 63% 30.18 in - NNW 4.6 mph - N/A   Clear
10:30 PM 60.8 °F 48.2 °F 63% 30.18 in - NNW 4.6 mph - N/A   Clear
11:00 PM 59.0 °F 46.4 °F 63% 30.18 in - WNW 3.5 mph - N/A   Clear
11:30 PM 59.0 °F 46.4 °F 63% 30.18 in - WNW 3.5 mph - N/A   Clear